Miscellaneous Local Product
Issued by NWS Hastings, NE

Home | Current Version | Previous Version | Graphics & Text | Print | Product List | Glossary On
Versions: 1 2 3 4 5 6 7 8 9 10 11 12 13 14 15 16 17 18 19 20 21 22 23 24 25 26 27 28 29 30 31 32 33 34 35 36 37 38 39 40 41 42 43 44 45 46 47 48 49 50
667
AXUS43 KGID 060902
MISGRI

GID CWA HOURLY WEATHER ROUNDUP
NATIONAL WEATHER SERVICE HASTINGS NE
300 AM CST TUE DEC 06 2016

NOTE: "FAIR" INDICATES FEW OR NO CLOUDS BELOW 12,000 FEET WITH NO
SIGNIFICANT WEATHER AND/OR OBSTRUCTIONS TO VISIBILITY.

...SOUTH CENTRAL NEBRASKA...

CITY           SKY/WX    TMP DP  RH WIND       PRES   REMARKS
GRAND ISLAND   CLOUDY    24  13  62 NW13      29.98R WCI  12
HASTINGS       CLOUDY    25  15  66 NW17      29.97R WCI  12
KEARNEY        PTCLDY    25  12  58 NW9       29.98R WCI  15
ORD            PTCLDY    20   9  62 NW13      29.96R WCI   7
YORK           CLOUDY    27  14  59 NW16G24   29.96R WCI  14
AURORA         CLOUDY    26  13  59 N13       29.97R WCI  14
LEXINGTON      CLEAR     24  17  72 W14       29.98R WCI  12
HOLDREGE       PTCLDY    22  15  73 NW9       29.98R WCI  12
HEBRON         CLOUDY    30  17  57 N18G25    29.97R WCI  18

...NEBRASKA PANHANDLE...

CITY           SKY/WX    TMP DP  RH WIND       PRES   REMARKS
CHADRON        CLEAR     13   4  67 W9        30.01R WCI   1
ALLIANCE       CLEAR     11   3  70 NW13      29.95R WCI  -4
SCOTTSBLUFF    CLEAR     11   3  70 NW8       29.99R WCI  -1
SIDNEY         CLEAR     10   3  73 NW10      29.98R WCI  -4

...WESTERN AND NORTH CENTRAL NEBRASKA...

CITY           SKY/WX    TMP DP  RH WIND       PRES   REMARKS
VALENTINE      CLEAR     16   6  65 W14       29.95R WCI   2
AINSWORTH      CLEAR     18  10  70 W13       29.94S WCI   4
ONEILL         CLEAR     19  10  67 NW17      29.94R WCI   4
BROKEN BOW     PTCLDY    19  13  77 NW8       29.96R WCI   9
IMPERIAL       CLEAR     19   8  62 NW14      30.01R WCI   6
NORTH PLATTE   CLEAR     20  11  68 NW12      29.99R WCI   8
MCCOOK         CLEAR     20  10  65 NW8       30.02R WCI  10

...EASTERN NEBRASKA...

CITY           SKY/WX    TMP DP  RH WIND       PRES   REMARKS
NORFOLK        PTCLDY    21  10  62 NW14      29.93R WCI   8
SO SIOUX CITY  CLOUDY    26  14  60 NW21      29.91R WCI  12
TEKAMAH        CLOUDY    29  18  63 NW14      29.94R WCI  18
COLUMBUS       MOCLDY    27  12  54 NW16G23   29.95R WCI  14
ALBION         PTCLDY    22  10  60 NW14G20   29.96R WCI   9
OMAHA EPPLEY   CLOUDY    31  20  63 NW18      29.94R WCI  19
OFFUTT AFB     CLOUDY    31  24  75 NW14G22   29.93S WCI  21
MILLARD        CLOUDY    32  19  60 NW18G24   29.95R WCI  20
LINCOLN        CLOUDY    31  19  61 NW14      29.96R WCI  21
NEBRASKA CITY  CLOUDY    32  20  61 N17G24    29.92S WCI  21
BEATRICE       CLOUDY    32  20  63 N15       29.94R WCI  21
FALLS CITY     CLOUDY    33  24  69 NW17G30   29.91R WCI  22

...NORTHERN KANSAS...

CITY           SKY/WX    TMP DP  RH WIND       PRES   REMARKS
GOODLAND       CLEAR     14   7  73 NW10      30.00R WCI   1
HILL CITY      CLEAR     24  16  71 N9        30.01R WCI  14
NORTON         SUNNY     21  10  63 W6        29.99R WCI  14
PHILLIPSBURG   CLEAR     25  18  74 NW7       30.01R WCI  17
SMITH CENTER   CLEAR     25  16  68 NW10      30.01R WCI  15
BELOIT         CLOUDY    30  18  59 NW17G24   29.98R WCI  18
HAYS           CLEAR     27  18  69 N13       30.00R WCI  16
RUSSELL        PTCLDY    28  17  63 N15       29.98R WCI  16
CONCORDIA      CLOUDY    31  20  63 N15G23    29.97R WCI  20
SALINA         PTCLDY    33  22  63 N18       29.96R WCI  22
TOPEKA         CLOUDY    37  30  75 N12G29    29.89R WCI  29



USA.gov is the U.S. government's official web portal to all federal, state and local government web resources and services.